Weather History for Savanna, IL

Change the Weather History Date:

Sunday, July 7, 2013

  Actual Average (KCWI) Record (KCWI)
Temperature  
Mean Temperature 78 °F -  
Max Temperature 91 °F 84 °F 100 °F (2012)
Min Temperature 66 °F 63 °F 46 °F (1984)
Cooling Degree Days 14    
Growing Degree Days 28 (Base 50)    
Moisture  
Dew Point 67 °F    
Average Humidity 71    
Maximum Humidity 94    
Minimum Humidity 43    
Precipitation  
Precipitation 0.00 in - - ()
Sea Level Pressure  
Sea Level Pressure 29.96 in    
Wind  
Wind Speed 4 mph (South)    
Max Wind Speed 10 mph    
Max Gust Speed -    
Visibility 8 miles    
Events      
Averages and records for this station are not official NWS values.
T = Trace of Precipitation, MM = Missing Value Source: NWS Daily Summary

Daily Weather History Graph

Daily Weather History Graph

Search for Another Location

Airport:

Trip Planner

Search our weather history database for the weather conditions in past years. The results will help you decide how hot, cold, wet, or windy it might be!

Date:

Astronomy

Jul. 07, 2013 Rise Set
Actual Time 5:32 AM CDT 8:38 PM CDT
Civil Twilight 4:58 AM CDT 9:12 PM CDT
Nautical Twilight 4:14 AM CDT 9:55 PM CDT
Astronomical Twilight 3:23 AM CDT 10:47 PM CDT
Moon 5:09 AM CDT (7/7) 8:00 PM CDT (7/7)
Length of Visible Light 16h 13m
Length of Day
15h 06m
Waning Crescent, 0% of the Moon is Illuminated
Jul 7
Waning Crescent
Jul 8
New
Jul 15
First Quarter
Jul 22
Full
Jul 29
Last Quarter

Hourly Weather History & Observations

Time (CDT) Temp. Heat Index Dew Point Humidity Pressure Visibility Wind Dir Wind Speed Gust Speed Precip Events Conditions
12:15 AM 68.9 °F - 65.3 °F 88% 29.99 in 7.0 mi Calm Calm - N/A   Clear
12:35 AM 69.4 °F - 65.5 °F 87% 29.98 in 7.0 mi Calm Calm - N/A   Clear
12:55 AM 69.1 °F - 65.7 °F 89% 29.98 in 7.0 mi Calm Calm - N/A   Clear
1:15 AM 68.4 °F - 65.5 °F 90% 29.98 in 7.0 mi Calm Calm - N/A   Clear
1:35 AM 68.0 °F - 65.1 °F 90% 29.98 in 7.0 mi Calm Calm - N/A   Clear
1:55 AM 68.2 °F - 65.3 °F 90% 29.98 in 7.0 mi Calm Calm - N/A   Clear
2:15 AM 67.6 °F - 64.6 °F 90% 29.97 in 7.0 mi SSE 4.6 mph - N/A   Clear
2:35 AM 67.5 °F - 64.4 °F 90% 29.97 in 7.0 mi SSE 5.8 mph - N/A   Clear
2:55 AM 66.9 °F - 64.4 °F 92% 29.97 in 5.0 mi SSE 4.6 mph - N/A   Clear
3:15 AM 66.6 °F - 64.4 °F 93% 29.97 in 5.0 mi SE 4.6 mph - N/A   Clear
3:35 AM 66.2 °F - 64.0 °F 93% 29.97 in 4.0 mi SE 4.6 mph - N/A   Clear
3:55 AM 66.4 °F - 64.4 °F 93% 29.97 in 4.0 mi SE 5.8 mph - N/A   Clear
4:15 AM 66.6 °F - 64.6 °F 93% 29.97 in 4.0 mi SE 4.6 mph - N/A   Scattered Clouds
4:35 AM 66.9 °F - 64.9 °F 93% 29.97 in 5.0 mi SE 3.5 mph - N/A   Scattered Clouds
4:55 AM 67.3 °F - 65.3 °F 93% 29.97 in 5.0 mi SE 3.5 mph - N/A   Clear
5:15 AM 66.2 °F - 64.0 °F 93% 29.97 in 5.0 mi SE 4.6 mph - N/A   Clear
5:35 AM 66.2 °F - 64.0 °F 93% 29.98 in 2.5 mi SSE 3.5 mph - N/A   Scattered Clouds
5:55 AM 66.4 °F - 64.6 °F 94% 29.98 in 3.0 mi Calm Calm - N/A   Clear
6:15 AM 66.6 °F - 64.6 °F 93% 29.98 in 3.0 mi ESE 3.5 mph - N/A   Clear
6:35 AM 68.0 °F - 65.7 °F 92% 29.98 in 3.0 mi SSE 4.6 mph - N/A   Clear
6:55 AM 69.8 °F - 67.1 °F 91% 29.98 in 4.0 mi SSE 4.6 mph - N/A   Clear
7:15 AM 70.7 °F - 67.5 °F 89% 29.98 in 5.0 mi SSE 6.9 mph - N/A   Clear
7:35 AM 72.0 °F - 67.6 °F 86% 29.99 in 7.0 mi SSE 5.8 mph - N/A   Clear
7:55 AM 73.6 °F - 68.4 °F 84% 29.99 in 7.0 mi SSE 5.8 mph - N/A   Clear
8:15 AM 74.8 °F - 68.4 °F 80% 29.99 in 10.0 mi SSE 5.8 mph - N/A   Clear
8:35 AM 76.5 °F - 67.6 °F 74% 29.99 in 10.0 mi South 5.8 mph - N/A   Clear
8:55 AM 77.2 °F - 67.3 °F 71% 29.98 in 10.0 mi South 6.9 mph - N/A   Clear
9:15 AM 78.1 °F - 66.4 °F 67% 29.98 in 10.0 mi South 5.8 mph - N/A   Clear
9:35 AM 79.0 °F - 67.3 °F 67% 29.98 in 10.0 mi South 6.9 mph - N/A   Clear
9:55 AM 80.2 °F 82.6 °F 67.1 °F 64% 29.98 in 10.0 mi SE 4.6 mph - N/A   Clear
10:15 AM 80.4 °F 82.7 °F 66.7 °F 63% 29.98 in 10.0 mi SSW 4.6 mph - N/A   Clear
10:35 AM 81.7 °F 84.2 °F 67.1 °F 61% 29.98 in 10.0 mi SSW 4.6 mph - N/A   Clear
10:55 AM 82.6 °F 85.3 °F 67.3 °F 60% 29.98 in 10.0 mi SSW 4.6 mph - N/A   Clear
11:15 AM 83.7 °F 86.2 °F 67.1 °F 57% 29.98 in 10.0 mi SW 6.9 mph - N/A   Clear
11:35 AM 84.2 °F 86.8 °F 66.9 °F 56% 29.98 in 10.0 mi SSW 6.9 mph - N/A   Clear
11:55 AM 85.1 °F 87.9 °F 67.1 °F 55% 29.98 in 10.0 mi SSW 5.8 mph - N/A   Clear
12:15 PM 86.0 °F 88.8 °F 67.1 °F 53% 29.98 in 10.0 mi South 6.9 mph - N/A   Clear
12:35 PM 86.7 °F 89.9 °F 67.5 °F 53% 29.98 in 10.0 mi SW 8.1 mph - N/A   Clear
12:55 PM 87.6 °F 90.4 °F 67.1 °F 50% 29.97 in 10.0 mi SSW 6.9 mph - N/A   Clear
1:15 PM 88.7 °F 91.9 °F 67.3 °F 49% 29.96 in 10.0 mi South 6.9 mph - N/A   Clear
1:35 PM 89.4 °F 92.3 °F 66.9 °F 47% 29.96 in 10.0 mi SW 9.2 mph - N/A   Clear
1:55 PM 89.4 °F 91.9 °F 66.0 °F 46% 29.96 in 10.0 mi SSW 9.2 mph - N/A   Clear
2:15 PM 87.3 °F 89.5 °F 66.0 °F 49% 29.96 in 10.0 mi SSW 9.2 mph - N/A   Clear
2:35 PM 88.9 °F 91.0 °F 65.7 °F 46% 29.96 in 10.0 mi SSW 9.2 mph - N/A   Scattered Clouds
2:55 PM 91.4 °F 94.5 °F 66.6 °F 44% 29.95 in 10.0 mi South 8.1 mph - N/A   Scattered Clouds
3:15 PM 90.9 °F 93.1 °F 65.7 °F 43% 29.95 in 10.0 mi South 10.4 mph - N/A   Clear
3:35 PM 90.0 °F 92.4 °F 66.2 °F 45% 29.95 in 10.0 mi SSW 9.2 mph - N/A   Clear
3:55 PM 91.2 °F 93.7 °F 66.0 °F 43% 29.94 in 10.0 mi South 9.2 mph - N/A   Clear
4:15 PM 88.9 °F 91.8 °F 67.1 °F 48% 29.94 in 10.0 mi South 6.9 mph - N/A   Clear
4:35 PM 90.5 °F 93.8 °F 67.1 °F 46% 29.94 in 10.0 mi South 8.1 mph - N/A   Clear
4:55 PM 88.7 °F 92.2 °F 68.0 °F 50% 29.94 in 10.0 mi South 6.9 mph - N/A   Clear
5:15 PM 88.9 °F 93.0 °F 68.4 °F 51% 29.94 in 10.0 mi SSW 8.1 mph - N/A   Clear
5:35 PM 89.4 °F 93.1 °F 68.2 °F 49% 29.94 in 10.0 mi SSW 9.2 mph - N/A   Scattered Clouds
5:55 PM 89.2 °F 93.6 °F 68.7 °F 51% 29.93 in 10.0 mi SSW 6.9 mph - N/A   Scattered Clouds
6:15 PM 88.0 °F 91.8 °F 68.4 °F 52% 29.93 in 10.0 mi SSW 8.1 mph - N/A   Clear
6:35 PM 86.9 °F 91.3 °F 69.3 °F 56% 29.93 in 10.0 mi SSW 8.1 mph - N/A   Mostly Cloudy
6:55 PM 86.5 °F 90.7 °F 69.1 °F 56% 29.93 in 10.0 mi SW 6.9 mph - N/A   Scattered Clouds
7:15 PM 86.2 °F 90.7 °F 69.8 °F 58% 29.93 in 10.0 mi SSW 5.8 mph - N/A   Clear
7:35 PM 85.1 °F 90.1 °F 70.7 °F 62% 29.93 in 10.0 mi SSW 5.8 mph - N/A   Clear
7:55 PM 84.2 °F 89.0 °F 70.9 °F 64% 29.93 in 10.0 mi South 6.9 mph - N/A   Clear
8:15 PM 82.0 °F 86.5 °F 71.4 °F 70% 29.93 in 10.0 mi South 6.9 mph - N/A   Clear
8:35 PM 80.1 °F 83.4 °F 70.9 °F 73% 29.93 in 10.0 mi SSE 5.8 mph - N/A   Scattered Clouds
8:55 PM 79.2 °F - 70.9 °F 76% 29.93 in 10.0 mi SSE 8.1 mph - N/A   Clear
9:15 PM 79.2 °F - 70.2 °F 74% 29.93 in 10.0 mi SSE 8.1 mph - N/A   Clear
9:35 PM 78.4 °F - 70.0 °F 75% 29.94 in 10.0 mi South 6.9 mph - N/A   Clear
9:55 PM 78.3 °F - 69.8 °F 75% 29.94 in 10.0 mi South 6.9 mph - N/A   Clear
10:15 PM 78.4 °F - 68.7 °F 72% 29.95 in 10.0 mi South 6.9 mph - N/A   Scattered Clouds
10:35 PM 77.0 °F - 68.9 °F 76% 29.96 in 10.0 mi South 4.6 mph - N/A   Clear
10:55 PM 76.3 °F - 69.3 °F 79% 29.96 in 10.0 mi South 6.9 mph - N/A   Scattered Clouds
11:15 PM 76.1 °F - 69.1 °F 79% 29.97 in 10.0 mi South 4.6 mph - N/A   Scattered Clouds
11:35 PM 75.4 °F - 69.1 °F 81% 29.97 in 10.0 mi SSE 5.8 mph - N/A   Clear
11:55 PM 74.3 °F - 69.4 °F 85% 29.98 in 10.0 mi SSE 4.6 mph - N/A   Clear